TimeCST,TemperatureF,Dew PointF,Humidity,Sea Level PressureIn,VisibilityMPH,Wind Direction,Wind SpeedMPH,Gust SpeedMPH,PrecipitationIn,Events,Conditions,WindDirDegrees,DateUTC
12:53 AM,46.0,37.0,71,30.38,10.0,Calm,Calm,-,0.00,Rain,Light Rain,0,2013-01-05 06:53:00
1:53 AM,45.0,39.0,80,30.39,5.0,Calm,Calm,-,0.02,Rain,Rain,0,2013-01-05 07:53:00
2:53 AM,44.1,39.0,82,30.39,6.0,Calm,Calm,-,0.03,Rain,Light Rain,0,2013-01-05 08:53:00
3:53 AM,44.1,39.9,85,30.38,6.0,Calm,Calm,-,0.03,Rain,Light Rain,0,2013-01-05 09:53:00
4:53 AM,44.1,39.9,85,30.38,6.0,Calm,Calm,-,0.00,Rain,Light Rain,0,2013-01-05 10:53:00
5:53 AM,44.1,39.9,85,30.35,7.0,ENE,3.5,-,0.00,,Overcast,60,2013-01-05 11:53:00
6:53 AM,44.1,39.9,85,30.35,8.0,Calm,Calm,-,N/A,,Overcast,0,2013-01-05 12:53:00
7:53 AM,44.1,39.9,85,30.36,8.0,East,5.8,-,N/A,,Unknown,90,2013-01-05 13:53:00
8:53 AM,44.1,39.0,82,30.38,10.0,SE,4.6,-,N/A,,Unknown,130,2013-01-05 14:53:00
9:53 AM,45.0,39.9,82,30.40,9.0,SSE,5.8,-,0.00,Rain,Light Rain,150,2013-01-05 15:53:00
10:53 AM,45.0,39.9,82,30.38,7.0,Calm,Calm,-,0.01,Rain,Light Rain,0,2013-01-05 16:53:00
11:53 AM,45.0,41.0,86,30.36,5.0,Calm,Calm,-,0.03,Rain,Light Rain,0,2013-01-05 17:53:00
12:53 PM,46.0,41.0,83,30.31,10.0,East,3.5,-,0.01,,Unknown,100,2013-01-05 18:53:00
1:37 PM,46.4,42.8,87,30.30,4.0,Calm,Calm,-,0.00,Rain,Light Rain,0,2013-01-05 19:37:00
1:46 PM,46.4,42.8,87,30.28,3.0,Calm,Calm,-,0.00,Rain,Light Rain,0,2013-01-05 19:46:00
2:01 PM,46.4,42.8,87,30.28,3.0,Calm,Calm,-,0.00,Rain,Light Rain,0,2013-01-05 20:01:00
2:51 PM,46.4,42.8,87,30.28,10.0,South,3.5,-,0.00,,Overcast,170,2013-01-05 20:51:00
2:53 PM,46.9,42.1,83,30.28,10.0,Calm,Calm,-,0.00,,Overcast,0,2013-01-05 20:53:00
3:33 PM,46.4,42.8,87,30.28,10.0,Calm,Calm,-,N/A,,Overcast,0,2013-01-05 21:33:00
3:53 PM,46.9,42.1,83,30.28,10.0,Calm,Calm,-,N/A,,Overcast,0,2013-01-05 21:53:00
4:53 PM,46.4,42.8,87,30.28,10.0,SSE,3.5,-,N/A,,Overcast,160,2013-01-05 22:53:00
5:53 PM,46.9,42.1,83,30.28,10.0,Calm,Calm,-,N/A,,Overcast,0,2013-01-05 23:53:00
6:53 PM,46.9,42.1,83,30.29,10.0,Calm,Calm,-,N/A,,Overcast,0,2013-01-06 00:53:00
7:53 PM,46.9,41.0,80,30.29,10.0,NNE,3.5,-,N/A,,Overcast,30,2013-01-06 01:53:00
8:53 PM,46.0,41.0,83,30.28,10.0,Calm,Calm,-,N/A,,Overcast,0,2013-01-06 02:53:00
9:53 PM,45.0,41.0,86,30.30,10.0,ENE,4.6,-,N/A,,Overcast,60,2013-01-06 03:53:00
10:53 PM,45.0,41.0,86,30.30,10.0,NNE,3.5,-,N/A,,Overcast,20,2013-01-06 04:53:00
11:53 PM,45.0,39.9,82,30.30,10.0,North,4.6,-,N/A,,Overcast,350,2013-01-06 05:53:00